[[{"header":{"parameterUnit":"m.s-1","parameterCategory":1,"la1":30.2991,"la2":30.254,"lo1":-89.0895,"lo2":-89.0444,"dy":0.0017,"dx":0.0017,"nx":28,"ny":28,"refTime":"2023-08-14T09:00:00:Z","depth":0,"parameterNumber":2,"parameterNumberName":"U-component_of_WINDS"},"data":[0,0,0,0,0,0,0,0,0,0,0,0,0,0,0,0,0,0,0,0,0,0,0,0,0,0,0,0,0,0,0,0,0,0,0,0,0,0,0,0,0,0,0,0,0,0,0,0,0,0,0,0,0,0,0,0,0,0,0.214,0.214,0,0.216,0.2161,0.2161,0.2166,0.2166,0.2165,0.2165,0.2186,0.2187,0.2188,0,0,0,0,0,0,0,0,0,0,0,0,0,0.2106,0.2106,0.214,0.214,0.214,0.216,0.2161,0.2161,0.2166,0.2166,0.2165,0.2165,0.2186,0.2187,0.2188,0,0,0,0,0,0,0,0,0,0,0,0,0,0.2123,0.2106,0.214,0.2145,0.2146,0.216,0.2161,0.2161,0.2166,0.2166,0.2165,0.2165,0.2186,0.2187,0.2188,0.2199,0,0,0.2191,0.2192,0,0,0,0,0,0,0,0,0.2122,0.2124,0.2144,0.2145,0.2145,0.216,0.2156,0.2174,0.2166,0.2158,0.2165,0.2165,0.2178,0.218,0.2184,0.22,0.22,0.2191,0.2192,0.2192,0.2193,0,0,0,0,0,0,0,0.2121,0.2123,0.2148,0.2144,0.2145,0.2147,0.2149,0.216,0.2169,0.2159,0.2159,0.2162,0.2178,0.2183,0.2184,0.2201,0.2191,0.2192,0.2193,0.2193,0.2229,0.223,0,0,0,0,0,0,0.2118,0.2122,0.2147,0.2148,0.2133,0.2148,0.215,0.2156,0.2169,0.2171,0.2162,0.2162,0.2181,0.2183,0.2185,0.22,0.2192,0.2193,0.2194,0.2229,0.2229,0.223,0,0,0,0,0,0,0.2118,0.212,0.2146,0.2135,0.2139,0.2148,0.2155,0.2156,0.2161,0.2171,0.2173,0.2165,0.2181,0.2184,0.2196,0.2201,0.2194,0.2195,0.2229,0.2229,0.223,0.223,0,0,0,0,0,0,0.2117,0.212,0.2124,0.2135,0.2139,0.2156,0.2155,0.2157,0.2163,0.2163,0.2174,0.2176,0.2181,0.2194,0.2197,0.2203,0.2195,0.2228,0.2229,0.2229,0.2229,0.223,0.2231,0,0,0,0,0,0.2115,0.2122,0.2124,0.2127,0.2144,0.2156,0.2159,0.2164,0.2163,0.2167,0.2174,0.2176,0.22,0.2195,0.2198,0.2204,0.2228,0.2229,0.2229,0.2229,0.223,0.2231,0,0,0,0,0,0,0.211,0.2124,0.2126,0.2137,0.2146,0.2157,0.2162,0.2165,0.2174,0.2174,0.2181,0.2183,0.2196,0.2201,0.2196,0.2217,0.2214,0.2215,0.2213,0.2214,0.2215,0.2214,0.2196,0,0,0,0,0,0.2111,0.2119,0.2131,0.2139,0.2144,0.2152,0.2158,0.2162,0.2171,0.2175,0.2183,0.2192,0.2202,0.2208,0.2218,0.223,0.2234,0.2236,0.2237,0.2238,0.2239,0.2249,0.225,0.2232,0.2232,0.2232,0,0,0.2111,0.2119,0.2124,0.2139,0.2146,0.2156,0.2155,0.2165,0.2172,0.2176,0.2189,0.2195,0.2206,0.2219,0.2225,0.2224,0.2245,0.2239,0.2239,0.224,0.225,0.2251,0.2253,0.2233,0.2233,0.2233,0,0,0.2117,0.2123,0.2133,0.214,0.2152,0.2158,0.216,0.2172,0.2177,0.2189,0.2193,0.2203,0.2219,0.2227,0.2234,0.2246,0.2248,0.2249,0.2253,0.2263,0.2264,0.2265,0.2272,0.2274,0.225,0.225,0.225,0,0.2116,0.213,0.2137,0.2147,0.2154,0.2159,0.2169,0.2176,0.219,0.2195,0.2194,0.2216,0.2224,0.224,0.2243,0.2248,0.2252,0.2247,0.2263,0.2265,0.2266,0.2272,0.2274,0.225,0.225,0.225,0.225,0,0.2129,0.2139,0.2145,0.216,0.2168,0.2177,0.2187,0.2194,0.2198,0.2205,0.2219,0.2228,0.2241,0.2245,0.2248,0.2263,0.2262,0.2262,0.2259,0.2268,0.2274,0.2276,0.225,0.225,0.225,0.225,0,0,0.2131,0.2151,0.2153,0.2161,0.2175,0.2183,0.2195,0.2208,0.2215,0.2224,0.2235,0.225,0.2251,0.2258,0.2263,0.2271,0.2283,0.227,0.2271,0.2274,0.2302,0.2303,0.2306,0.2285,0.2285,0.2285,0.2302,0,0.214,0.216,0.2167,0.2184,0.2195,0.2201,0.2211,0.2221,0.2228,0.2239,0.2247,0.2259,0.2258,0.2263,0.2271,0.228,0.2289,0.2278,0.2296,0.2296,0.2294,0.2308,0.2309,0.2324,0.2304,0.2304,0.2305,0,0.2152,0.2163,0.2181,0.2197,0.2202,0.221,0.2225,0.2234,0.2247,0.2252,0.2262,0.2267,0.228,0.2277,0.2296,0.2289,0.2297,0.2302,0.2303,0.2306,0.2302,0.2313,0.2329,0.2331,0.2308,0.2308,0.2308,0,0.2153,0.2173,0.2187,0.2194,0.2211,0.2218,0.2226,0.2238,0.2247,0.2259,0.2265,0.2279,0.2287,0.2298,0.2307,0.2303,0.2327,0.2323,0.2332,0.2332,0.2337,0.2337,0.2356,0.234,0.234,0.234,0.234,0,0.2162,0.2174,0.2189,0.2197,0.2211,0.222,0.2234,0.2242,0.2254,0.2265,0.2271,0.2282,0.2293,0.2305,0.2312,0.2329,0.2332,0.2337,0.2339,0.2337,0.2337,0.2343,0.2343,0.2341,0.2341,0.234,0.234,0,0.2166,0.2176,0.2192,0.2209,0.2214,0.2223,0.2238,0.2247,0.2256,0.227,0.2274,0.2287,0.2303,0.2313,0.2332,0.2337,0.2356,0.2357,0.2352,0.2353,0.2363,0.2362,0.2387,0.2392,0.2371,0.2372,0.2372,0,0.2171,0.218,0.2199,0.2207,0.2215,0.2228,0.2238,0.2248,0.2258,0.2275,0.2283,0.2299,0.2312,0.2337,0.2349,0.2364,0.2367,0.2374,0.2369,0.2368,0.2369,0.2369,0.2371,0.2375,0.2376,0.2376,0.2376,0,0.218,0.2186,0.2199,0.2215,0.2226,0.2239,0.2251,0.2258,0.2271,0.2282,0.2298,0.2309,0.233,0.2347,0.2364,0.2373,0.2377,0.2378,0.2381,0.238,0.2377,0.2381,0.2356,0.2377,0.2377,0.2377,0.2377,0.2377,0.2186,0.2196,0.2211,0.2226,0.2237,0.225,0.2261,0.2271,0.2285,0.2304,0.2309,0.2327,0.2342,0.2366,0.2376,0.2391,0.239,0.2394,0.2395,0.2397,0.2398,0.2374,0.2394,0.2394,0.2394,0.2394,0.2394,0,0.2197,0.2208,0.2222,0.2241,0.2253,0.2257,0.2272,0.2283,0.2298,0.2312,0.2326,0.2347,0.2364,0.2378,0.2396,0.2405,0.2408,0.241,0.241,0.2413,0.2396,0.2393,0.2408,0.2408,0.2408,0.2408,0.2408,0.2408,0.2204,0.2221,0.2229,0.2253,0.2264,0.2282,0.229,0.2303,0.2315,0.2337,0.2352,0.2361,0.2376,0.2396,0.2413,0.2416,0.2424,0.2425,0.243,0.2415,0.2413,0.2412,0.2408,0.2426,0.2426,0.2445,0.2445,0.2445]},{"header":{"parameterUnit":"m.s-1","parameterCategory":1,"la1":30.2991,"la2":30.254,"lo1":-89.0895,"lo2":-89.0444,"dy":0.0017,"dx":0.0017,"nx":28,"ny":28,"refTime":"2023-08-14T09:00:00:Z","depth":0,"parameterNumber":3,"parameterNumberName":"V-component_of_WINDS"},"data":[0,0,0,0,0,0,0,0,0,0,0,0,0,0,0,0,0,0,0,0,0,0,0,0,0,0,0,0,0,0,0,0,0,0,0,0,0,0,0,0,0,0,0,0,0,0,0,0,0,0,0,0,0,0,0,0,0,0,-3.0245,-3.0244,0,-3.0205,-3.0204,-3.0204,-3.0141,-3.014,-3.0139,-3.0138,-3.0096,-3.0096,-3.0096,0,0,0,0,0,0,0,0,0,0,0,0,0,-3.0268,-3.0268,-3.0245,-3.0244,-3.0244,-3.0205,-3.0204,-3.0204,-3.0141,-3.014,-3.0138,-3.0137,-3.0096,-3.0096,-3.0096,0,0,0,0,0,0,0,0,0,0,0,0,0,-3.0246,-3.0268,-3.0245,-3.0208,-3.0204,-3.0205,-3.0204,-3.0203,-3.0141,-3.014,-3.0138,-3.0136,-3.0096,-3.0096,-3.0096,-3.0129,0,0,-3.0095,-3.0095,0,0,0,0,0,0,0,0,-3.0247,-3.0245,-3.0214,-3.021,-3.0206,-3.0176,-3.0197,-3.0178,-3.0142,-3.0165,-3.0138,-3.0136,-3.0124,-3.0121,-3.0117,-3.0127,-3.0125,-3.0095,-3.0095,-3.0095,-3.0095,0,0,0,0,0,0,0,-3.0249,-3.0246,-3.0229,-3.0214,-3.0209,-3.0193,-3.0188,-3.0193,-3.0154,-3.0163,-3.0158,-3.0155,-3.0121,-3.0118,-3.0116,-3.0124,-3.0095,-3.0095,-3.0095,-3.0095,-3.0159,-3.016,0,0,0,0,0,0,-3.0256,-3.0248,-3.023,-3.0228,-3.0223,-3.0194,-3.0189,-3.0187,-3.0154,-3.0148,-3.0156,-3.0152,-3.0119,-3.0116,-3.0114,-3.015,-3.0095,-3.0095,-3.0095,-3.0157,-3.0159,-3.0161,0,0,0,0,0,0,-3.0256,-3.0255,-3.0232,-3.0237,-3.0232,-3.0196,-3.0195,-3.0188,-3.0184,-3.0149,-3.0142,-3.0159,-3.0117,-3.0114,-3.0126,-3.0148,-3.0095,-3.0095,-3.0155,-3.0158,-3.016,-3.0223,0,0,0,0,0,0,-3.0257,-3.0255,-3.0267,-3.0237,-3.0232,-3.0244,-3.0196,-3.0188,-3.0184,-3.0178,-3.015,-3.0144,-3.0116,-3.0126,-3.0126,-3.0147,-3.0095,-3.0153,-3.0156,-3.0159,-3.0218,-3.0227,-3.0234,0,0,0,0,0,-3.0258,-3.0287,-3.0268,-3.0266,-3.0247,-3.0245,-3.0242,-3.021,-3.0186,-3.0198,-3.0175,-3.0145,-3.0146,-3.0128,-3.0127,-3.0148,-3.0151,-3.0155,-3.0159,-3.0215,-3.0225,-3.0234,0,0,0,0,0,0,-3.032,-3.0282,-3.0261,-3.0281,-3.0267,-3.0235,-3.0248,-3.0222,-3.0214,-3.0209,-3.0169,-3.0163,-3.0179,-3.0165,-3.0145,-3.0178,-3.0144,-3.0148,-3.0187,-3.0196,-3.0204,-3.0206,-3.0095,0,0,0,0,0,-3.0336,-3.0338,-3.0305,-3.0325,-3.0319,-3.0285,-3.0283,-3.026,-3.0243,-3.0237,-3.0216,-3.0201,-3.0198,-3.0197,-3.0192,-3.0217,-3.0209,-3.0231,-3.0239,-3.0246,-3.0249,-3.026,-3.0269,-3.0174,-3.0174,-3.0174,0,0,-3.0368,-3.0348,-3.0351,-3.0337,-3.0323,-3.0326,-3.0281,-3.0286,-3.0287,-3.0238,-3.0246,-3.0231,-3.0212,-3.023,-3.0237,-3.0218,-3.0274,-3.0251,-3.0257,-3.0256,-3.0265,-3.0274,-3.0282,-3.0176,-3.0176,-3.0176,0,0,-3.0429,-3.0414,-3.0429,-3.0417,-3.0397,-3.0374,-3.0378,-3.035,-3.0338,-3.0346,-3.0309,-3.0311,-3.0307,-3.0295,-3.0288,-3.0345,-3.0316,-3.0345,-3.0386,-3.0398,-3.0405,-3.0412,-3.0431,-3.0438,-3.0349,-3.0349,-3.0349,0,-3.0471,-3.0474,-3.044,-3.0447,-3.0441,-3.0398,-3.0412,-3.0402,-3.0382,-3.0379,-3.0359,-3.0353,-3.0338,-3.0352,-3.0366,-3.0362,-3.0365,-3.0347,-3.0407,-3.0413,-3.0419,-3.0436,-3.0444,-3.0353,-3.0352,-3.0352,-3.0352,0,-3.0527,-3.053,-3.0544,-3.0526,-3.0522,-3.0533,-3.0501,-3.0501,-3.0478,-3.0458,-3.0467,-3.0447,-3.0438,-3.044,-3.0417,-3.0451,-3.044,-3.0415,-3.0378,-3.0432,-3.0448,-3.0454,-3.0358,-3.0356,-3.0355,-3.0354,0,0,-3.0623,-3.0586,-3.0592,-3.0583,-3.0559,-3.056,-3.057,-3.056,-3.0561,-3.0549,-3.0555,-3.0554,-3.053,-3.0523,-3.0499,-3.0509,-3.0554,-3.0482,-3.0481,-3.0495,-3.0589,-3.0607,-3.0615,-3.0536,-3.0537,-3.0538,-3.059,0,-3.0677,-3.069,-3.066,-3.0681,-3.0682,-3.0642,-3.065,-3.0636,-3.0618,-3.0617,-3.0596,-3.0595,-3.0565,-3.056,-3.0569,-3.0547,-3.0572,-3.0543,-3.054,-3.0541,-3.0544,-3.0623,-3.0642,-3.0692,-3.0596,-3.0597,-3.0598,0,-3.0741,-3.0732,-3.0753,-3.0728,-3.0727,-3.0735,-3.0724,-3.0724,-3.0707,-3.0693,-3.0686,-3.0658,-3.0665,-3.0633,-3.0642,-3.0622,-3.062,-3.0609,-3.0611,-3.0607,-3.0571,-3.0621,-3.0707,-3.0713,-3.0607,-3.0607,-3.0606,0,-3.0806,-3.0801,-3.0812,-3.0806,-3.0777,-3.0783,-3.0772,-3.0753,-3.075,-3.0741,-3.0738,-3.073,-3.0726,-3.072,-3.0691,-3.067,-3.0703,-3.0668,-3.0691,-3.0691,-3.0697,-3.0697,-3.0782,-3.0699,-3.0699,-3.0699,-3.0699,0,-3.0868,-3.0882,-3.0841,-3.0848,-3.0862,-3.0829,-3.0844,-3.0828,-3.0813,-3.0816,-3.0781,-3.0784,-3.0747,-3.0746,-3.0724,-3.0734,-3.0732,-3.0721,-3.0714,-3.0723,-3.0724,-3.0718,-3.0714,-3.0701,-3.0701,-3.07,-3.07,0,-3.0943,-3.0916,-3.0926,-3.0898,-3.0892,-3.0903,-3.088,-3.0885,-3.0865,-3.0869,-3.0868,-3.0838,-3.0835,-3.0806,-3.0797,-3.0782,-3.08,-3.0789,-3.0806,-3.0801,-3.0825,-3.0822,-3.0908,-3.0917,-3.0831,-3.0831,-3.0832,0,-3.0983,-3.0993,-3.0967,-3.0966,-3.0956,-3.0956,-3.0953,-3.0921,-3.0918,-3.0901,-3.0908,-3.0903,-3.0897,-3.0895,-3.0871,-3.0864,-3.085,-3.0881,-3.0849,-3.0857,-3.0849,-3.0848,-3.0848,-3.0887,-3.0888,-3.0889,-3.089,0,-3.1057,-3.1043,-3.1039,-3.1032,-3.1028,-3.102,-3.101,-3.1012,-3.0977,-3.0976,-3.0973,-3.0969,-3.096,-3.0955,-3.0944,-3.0932,-3.0905,-3.0901,-3.0905,-3.0913,-3.0922,-3.0915,-3.0822,-3.0898,-3.0897,-3.0897,-3.0896,-3.0896,-3.1114,-3.1121,-3.1103,-3.11,-3.109,-3.1081,-3.1084,-3.1066,-3.1063,-3.1053,-3.1035,-3.1035,-3.1019,-3.1001,-3.0991,-3.0991,-3.0975,-3.0982,-3.0983,-3.0984,-3.0988,-3.0924,-3.0989,-3.0989,-3.0988,-3.0988,-3.0988,0,-3.1184,-3.1171,-3.1169,-3.1156,-3.1154,-3.1131,-3.1118,-3.1118,-3.1118,-3.1106,-3.1101,-3.1097,-3.1093,-3.107,-3.1062,-3.1066,-3.1054,-3.1065,-3.1063,-3.1061,-3.1004,-3.1,-3.1075,-3.1075,-3.1075,-3.1075,-3.1075,-3.1075,-3.122,-3.123,-3.1215,-3.1219,-3.1206,-3.1205,-3.12,-3.1192,-3.1182,-3.118,-3.1176,-3.1162,-3.1145,-3.1136,-3.113,-3.1124,-3.1122,-3.1137,-3.1126,-3.1073,-3.1065,-3.1057,-3.1052,-3.1138,-3.1138,-3.1182,-3.1183,-3.1183]}]]